Location: Unspecified
(43.0000°N, 0.0000°E)
Time: 06:15:14
(UTC+00:00)

N. Korean satellite - Visible Passes

Search period start: 20 October 2019 00:00
Search period end: 30 October 2019 00:00
Orbit: 455 x 508 km, 97.2° (Epoch: 19 October)

Date Brightness Start Highest point End Pass type
(mag) Time Alt. Az. Time Alt. Az. Time Alt. Az.
20 Oct 10.3 04:51:35 10° ENE 04:53:06 12° E 04:54:38 10° ESE visible
21 Oct 10.1 18:09:14 10° SW 18:11:04 14° W 18:12:56 10° WNW visible
22 Oct 8.3 05:32:41 10° NNE 05:36:08 39° E 05:39:36 10° S visible
22 Oct 9.0 17:42:36 10° SSW 17:45:36 28° W 17:48:38 10° NW visible
23 Oct 9.7 05:07:59 10° NE 05:10:43 20° E 05:13:28 10° SE visible
25 Oct 7.1 05:49:58 10° NNE 05:53:38 69° E 05:57:18 10° S visible
25 Oct 9.9 18:00:47 10° SW 18:03:08 17° W 18:05:31 10° NW visible
26 Oct 8.7 05:24:56 10° NNE 05:28:15 32° E 05:31:36 10° SSE visible
26 Oct 8.4 17:34:30 10° SSW 17:37:40 35° W 17:40:55 10° NNW visible
27 Oct 10.0 05:00:25 10° NE 05:02:49 16° E 05:05:12 10° SE visible
28 Oct 10.4 18:19:57 10° WSW 18:20:42 11° W 18:21:27 10° WNW visible
29 Oct 7.5 05:42:06 10° NNE 05:45:45 54° E 05:49:23 10° S visible
29 Oct 9.5 17:52:27 10° SSW 17:55:10 21° W 17:57:56 10° NW visible
